This demonstration page uses our WeatherBlox Daily Observations layout. Learn more.

Left ArrowRight Arrow

Hourly Observations for April 24, 2020

Temp ( °F °C ) Dew Point ( °F °C ) Humidity (%) Winds ( mph kmh ) Pressure ( in mb ) Visibility ( mi km ) Precip ( " mm )
12:52 am 00:52 Cloudy 59 15 47 8.3 64 64 NNW 8 13 29.70 1006 10 16 0.00 0.00
1:52 am 01:52 Cloudy with Light Rain 59 15 48 8.9 67 67 Calm 29.70 1006 10 16 0.00 0.00
2:52 am 02:52 Cloudy 58 14.4 50 10 75 75 SE 7 11 29.69 1006 10 16 0.00 0.00
3:52 am 03:52 Cloudy 58 14.4 49 9.4 72 72 W 6 9 29.70 1006 10 16 0.00 0.00
4:52 am 04:52 Mostly Cloudy 55 12.8 49 9.4 80 80 N 8 13 29.71 1006 10 16 0.00 0.00
5:52 am 05:52 Partly Cloudy 53 11.7 48 8.9 83 83 N 10 17 29.73 1007 10 16 0.00 0.00
6:52 am 06:52 Cloudy 51 10.6 47 8.3 86 86 N 8 13 29.76 1008 10 16 0.00 0.00
7:52 am 07:52 Cloudy 54 12.2 48 8.9 80 80 N 14 22 29.78 1008 10 16 0.00 0.00
8:52 am 08:52 Cloudy 57 13.9 47 8.3 69 69 N 10 17 29.79 1009 10 16 0.00 0.00
9:52 am 09:52 Mostly Cloudy 60 15.6 46 7.8 60 60 N 13 20 29.78 1009 10 16 0.00 0.00
10:52 am 10:52 Cloudy 60 15.6 46 7.8 60 60 NNW 13 20 29.80 1009 10 16 0.00 0.00
11:52 am 11:52 Cloudy 60 15.6 46 7.8 60 60 NNW 14 22 29.81 1010 10 16 0.00 0.00
12:52 pm 12:52 Cloudy 61 16.1 47 8.3 60 60 N 14 22 29.81 1009 10 16 0.00 0.00
1:43 pm 13:43 Cloudy 62 16.7 50 10 65 65 N 16 26 29.80 1009 10 16 0.00 0.00
1:52 pm 13:52 Cloudy with Light Rain 61 16.1 51 10.6 70 70 NNE 14 22 29.81 1009 9 14 0.00 0.00
2:49 pm 14:49 Cloudy with Light Rain 61 16 54 12 77 77 N 13 20 29.81 1009 6 10 0.01 0.25
2:52 pm 14:52 Cloudy with Light Rain 60 15.6 53 11.7 78 78 N 14 22 29.82 1010 6 10 0.01 0.25
3:42 pm 15:42 Cloudy with Light Rain 60 15.6 52 11.1 75 75 N 12 19 29.81 1009 6 10 0.00 0.00
3:52 pm 15:52 Cloudy with Light Rain 60 15.6 52 11.1 75 75 N 16 26 29.81 1010 6 10 0.00 0.00
4:26 pm 16:26 Cloudy with Light Rain 59 15 53 11.7 81 81 N 9 15 29.82 1010 7 11 0.00 0.00
4:52 pm 16:52 Cloudy with Light Rain 60 15.6 54 12.2 80 80 NNE 7 11 29.82 1010 7 11 0.00 0.00
5:52 pm 17:52 Cloudy with Light Rain 58 14.4 50 10 75 75 ENE 8 13 29.85 1011 10 16 0.01 0.25
6:52 pm 18:52 Cloudy 57 13.9 51 10.6 81 81 Calm 29.85 1011 10 16 0.00 0.00
7:52 pm 19:52 Cloudy 56 13.3 51 10.6 84 84 Calm 29.85 1011 10 16 0.00 0.00
8:52 pm 20:52 Cloudy 55 12.8 51 10.6 87 87 Calm 29.88 1012 10 16 0.00 0.00
9:52 pm 21:52 Cloudy 54 12.2 52 11.1 93 93 Calm 29.91 1013 9 14 0.00 0.00
10:52 pm 22:52 Cloudy 53 11.7 50 10 89 89 N 3 6 29.93 1014 10 16 0.00 0.00
11:52 pm 23:52 Cloudy 51 10.6 46 7.8 83 83 N 5 7 29.94 1014 10 16 0.00 0.00

Powered by AerisWeather